• In Portugal
  • List of Countries
  • For 7 days
  • Water Temperature
  • Satellite Maps
  • Weather Map
  • Weather Widgets
  • user-avatar
    Login

    Hourly Weather Slobodka

    Today, 23 October, Tuesday

    Time Temperature Precipitation Wind Pressure Humidity
    00:00 +4°C° 0 mm 2 mps 746 mmHg 75%
    01:00 +4°C° 0 mm 2 mps 745 mmHg 76%
    02:00 +4°C° 0 mm 2 mps 745 mmHg 78%
    03:00 +3°C° 0 mm 2 mps 744 mmHg 78%
    04:00 +3°C° 0 mm 2 mps 744 mmHg 79%
    05:00 +3°C° 0 mm 2 mps 743 mmHg 79%
    06:00 +3°C° 0 mm 3 mps 743 mmHg 77%
    07:00 +3°C° 0 mm 3 mps 743 mmHg 75%
    08:00 +4°C° 0 mm 4 mps 742 mmHg 72%
    09:00 +5°C° 0 mm 4 mps 742 mmHg 69%
    10:00 +6°C° 0 mm 5 mps 741 mmHg 65%
    11:00 +7°C° 0 mm 5 mps 741 mmHg 62%
    12:00 +7°C° 0 mm 5 mps 740 mmHg 62%
    13:00 +8°C° 0 mm 6 mps 740 mmHg 62%
    14:00 +8°C° 0 mm 6 mps 739 mmHg 62%
    15:00 +7°C° 0 mm 5 mps 738 mmHg 66%
    16:00 +6°C° 0 mm 5 mps 738 mmHg 70%
    17:00 +6°C° 0 mm 5 mps 737 mmHg 74%
    18:00 +6°C° 0 mm 5 mps 737 mmHg 76%
    19:00 +5°C° 0 mm 5 mps 736 mmHg 78%
    20:00 +5°C° 0 mm 5 mps 736 mmHg 80%
    21:00 +5°C° 0.1 mm 5 mps 735 mmHg 78%
    22:00 +5°C° 0.1 mm 5 mps 734 mmHg 77%
    23:00 +5°C° 0.1 mm 5 mps 733 mmHg 75%

    Tomorrow, 24 October, Wednesday

    Time Temperature Precipitation Wind Pressure Humidity
    00:00 +5°C° 0.2 mm 5 mps 732 mmHg 76%
    01:00 +4°C° 0.2 mm 6 mps 731 mmHg 76%
    02:00 +4°C° 0.2 mm 6 mps 730 mmHg 76%
    03:00 +4°C° 0.3 mm 6 mps 729 mmHg 78%
    04:00 +4°C° 0.3 mm 7 mps 728 mmHg 79%
    05:00 +4°C° 0.3 mm 7 mps 727 mmHg 81%
    06:00 +4°C° 0.5 mm 7 mps 726 mmHg 82%
    07:00 +5°C° 0.5 mm 7 mps 725 mmHg 83%
    08:00 +5°C° 0.5 mm 7 mps 724 mmHg 85%
    09:00 +5°C° 0.7 mm 7 mps 724 mmHg 83%
    10:00 +6°C° 0.7 mm 7 mps 724 mmHg 82%
    11:00 +6°C° 0.7 mm 7 mps 723 mmHg 80%
    12:00 +6°C° 0.4 mm 7 mps 723 mmHg 81%
    13:00 +7°C° 0.4 mm 6 mps 723 mmHg 81%
    14:00 +7°C° 0.4 mm 6 mps 723 mmHg 82%
    15:00 +7°C° 0.5 mm 5 mps 722 mmHg 84%
    16:00 +6°C° 0.5 mm 4 mps 722 mmHg 87%
    17:00 +7°C° 0.5 mm 3 mps 722 mmHg 89%
    18:00 +7°C° 0.6 mm 2 mps 722 mmHg 91%
    19:00 +6°C° 0.6 mm 2 mps 721 mmHg 92%
    20:00 +7°C° 0.6 mm 1 mps 721 mmHg 94%
    21:00 +7°C° 0.8 mm 1 mps 721 mmHg 94%
    22:00 +6°C° 0.8 mm 2 mps 721 mmHg 94%
    23:00 +6°C° 0.8 mm 2 mps 720 mmHg 94%

    Day after tomorrow, 25 October, Thursday

    Time Temperature Precipitation Wind Pressure Humidity
    00:00 +5°C° 1.1 mm 3 mps 720 mmHg 93%
    01:00 +4°C° 1.1 mm 3 mps 720 mmHg 93%
    02:00 +4°C° 1.1 mm 4 mps 720 mmHg 92%
    03:00 +3°C° 1.2 mm 5 mps 719 mmHg 91%
    04:00 +3°C° 1.2 mm 5 mps 719 mmHg 91%
    05:00 +3°C° 1.2 mm 6 mps 719 mmHg 90%
    06:00 +3°C° 0.6 mm 6 mps 720 mmHg 88%
    07:00 +3°C° 0.6 mm 7 mps 720 mmHg 86%
    08:00 +3°C° 0.6 mm 7 mps 720 mmHg 85%
    09:00 +2°C° 0.2 mm 8 mps 721 mmHg 83%
    10:00 +4°C° 0.2 mm 8 mps 722 mmHg 81%
    11:00 +4°C° 0.2 mm 8 mps 722 mmHg 80%
    12:00 +4°C° 0.2 mm 8 mps 723 mmHg 78%
    13:00 +4°C° 0.2 mm 7 mps 724 mmHg 77%
    14:00 +4°C° 0.2 mm 7 mps 725 mmHg 76%
    15:00 +4°C° 0.1 mm 7 mps 726 mmHg 77%
    16:00 +3°C° 0.1 mm 6 mps 726 mmHg 78%
    17:00 +3°C° 0.1 mm 6 mps 727 mmHg 78%
    18:00 +3°C° 0.1 mm 6 mps 728 mmHg 78%
    19:00 +2°C° 0.1 mm 6 mps 728 mmHg 77%
    20:00 +2°C° 0.1 mm 6 mps 729 mmHg 77%
    21:00 +1°C° 0 mm 5 mps 729 mmHg 77%
    22:00 +1°C° 0 mm 5 mps 730 mmHg 78%
    23:00 +1°C° 0 mm 4 mps 730 mmHg 78%

    26 October, Friday

    Time Temperature Precipitation Wind Pressure Humidity
    00:00 +1°C° 0 mm 4 mps 730 mmHg 78%
    01:00 +1°C° 0 mm 4 mps 731 mmHg 78%
    02:00 +1°C° 0 mm 4 mps 731 mmHg 78%
    03:00 +1°C° 0 mm 4 mps 732 mmHg 77%
    04:00 +1°C° 0 mm 4 mps 733 mmHg 77%
    05:00 +1°C° 0 mm 4 mps 733 mmHg 77%
    06:00 +1°C° 0 mm 5 mps 734 mmHg 76%
    07:00 +1°C° 0 mm 5 mps 734 mmHg 76%
    08:00 +1°C° 0 mm 5 mps 735 mmHg 76%
    09:00 +2°C° 0 mm 5 mps 735 mmHg 72%
    10:00 +3°C° 0 mm 5 mps 736 mmHg 68%
    11:00 +5°C° 0 mm 5 mps 736 mmHg 64%
    12:00 +4°C° 0 mm 6 mps 736 mmHg 64%
    13:00 +4°C° 0 mm 6 mps 737 mmHg 64%
    14:00 +4°C° 0 mm 6 mps 737 mmHg 64%
    15:00 +5°C° 0.1 mm 5 mps 737 mmHg 68%
    16:00 +3°C° 0.1 mm 5 mps 738 mmHg 72%
    17:00 +4°C° 0.1 mm 4 mps 738 mmHg 76%
    18:00 +3°C° 0.1 mm 4 mps 739 mmHg 79%
    19:00 +3°C° 0.1 mm 4 mps 739 mmHg 81%
    20:00 +3°C° 0.1 mm 4 mps 740 mmHg 83%
    21:00 +1°C° 0 mm 4 mps 740 mmHg 86%
    22:00 +2°C° 0 mm 3 mps 741 mmHg 89%
    23:00 +1°C° 0 mm 3 mps 741 mmHg 92%

    27 October, Saturday

    Time Temperature Precipitation Wind Pressure Humidity
    00:00 +1°C° 0 mm 3 mps 742 mmHg 93%
    01:00 +1°C° 0 mm 3 mps 742 mmHg 94%
    02:00 +1°C° 0 mm 3 mps 742 mmHg 95%
    03:00 +1°C° 0 mm 3 mps 743 mmHg 95%
    04:00 0°C° 0 mm 3 mps 743 mmHg 95%
    05:00 0°C° 0 mm 3 mps 743 mmHg 96%
    06:00 +1°C° 0 mm 3 mps 744 mmHg 94%
    07:00 +2°C° 0 mm 3 mps 744 mmHg 92%
    08:00 +1°C° 0 mm 4 mps 744 mmHg 90%
    09:00 +4°C° 0 mm 4 mps 744 mmHg 84%
    10:00 +5°C° 0 mm 5 mps 744 mmHg 78%
    11:00 +6°C° 0 mm 5 mps 744 mmHg 72%
    12:00 +7°C° 0 mm 5 mps 744 mmHg 71%
    13:00 +7°C° 0 mm 5 mps 744 mmHg 71%
    14:00 +7°C° 0 mm 5 mps 744 mmHg 70%
    15:00 +7°C° 0 mm 5 mps 743 mmHg 72%
    16:00 +7°C° 0 mm 5 mps 743 mmHg 74%
    17:00 +6°C° 0 mm 5 mps 743 mmHg 76%
    18:00 +6°C° 0 mm 5 mps 743 mmHg 79%
    19:00 +7°C° 0 mm 6 mps 742 mmHg 82%
    20:00 +7°C° 0 mm 6 mps 742 mmHg 85%
    21:00 +7°C° 0.2 mm 6 mps 742 mmHg 87%
    22:00 +8°C° 0.2 mm 7 mps 741 mmHg 89%
    23:00 +9°C° 0.2 mm 7 mps 741 mmHg 90%

    28 October, Sunday

    Time Temperature Precipitation Wind Pressure Humidity
    00:00 +9°C° 0.2 mm 7 mps 741 mmHg 90%
    01:00 +9°C° 0.2 mm 7 mps 741 mmHg 90%
    02:00 +10°C° 0.2 mm 7 mps 741 mmHg 90%
    03:00 +10°C° 0 mm 7 mps 741 mmHg 91%
    04:00 +10°C° 0 mm 7 mps 741 mmHg 91%
    05:00 +10°C° 0 mm 7 mps 741 mmHg 92%
    06:00 +10°C° 0 mm 7 mps 741 mmHg 91%
    07:00 +10°C° 0 mm 8 mps 741 mmHg 89%
    08:00 +10°C° 0 mm 8 mps 741 mmHg 88%
    09:00 +11°C° 0 mm 8 mps 741 mmHg 85%
    10:00 +12°C° 0 mm 8 mps 741 mmHg 81%
    11:00 +12°C° 0 mm 8 mps 740 mmHg 78%
    12:00 +13°C° 0 mm 8 mps 740 mmHg 76%
    13:00 +13°C° 0 mm 8 mps 740 mmHg 74%
    14:00 +15°C° 0 mm 8 mps 740 mmHg 72%
    15:00 +15°C° 0 mm 8 mps 740 mmHg 73%
    16:00 +14°C° 0 mm 7 mps 740 mmHg 74%
    17:00 +14°C° 0 mm 7 mps 739 mmHg 75%
    18:00 +14°C° 0 mm 7 mps 739 mmHg 75%
    19:00 +14°C° 0 mm 7 mps 739 mmHg 75%
    20:00 +14°C° 0 mm 7 mps 739 mmHg 75%
    21:00 +14°C° 0.1 mm 7 mps 740 mmHg 78%
    22:00 +14°C° 0.1 mm 7 mps 740 mmHg 81%
    23:00 +14°C° 0.1 mm 6 mps 740 mmHg 84%

    29 October, Monday

    Time Temperature Precipitation Wind Pressure Humidity
    00:00 +14°C° 0 mm 6 mps 740 mmHg 85%
    01:00 +13°C° 0 mm 6 mps 741 mmHg 87%
    02:00 +13°C° 0 mm 6 mps 741 mmHg 88%
    03:00 +13°C° 0 mm 5 mps 742 mmHg 88%
    04:00 +12°C° 0 mm 5 mps 743 mmHg 89%
    05:00 +11°C° 0 mm 4 mps 743 mmHg 89%
    06:00 +11°C° 0 mm 4 mps 744 mmHg 85%
    07:00 +10°C° 0 mm 4 mps 745 mmHg 82%
    08:00 +9°C° 0 mm 3 mps 746 mmHg 78%
    09:00 +9°C° 0 mm 3 mps 747 mmHg 75%
    10:00 +9°C° 0 mm 3 mps 747 mmHg 72%
    11:00 +9°C° 0 mm 2 mps 748 mmHg 69%
    12:00 +9°C° 0.1 mm 2 mps 748 mmHg 69%
    13:00 +10°C° 0.1 mm 1 mps 748 mmHg 69%
    14:00 +10°C° 0.1 mm 1 mps 749 mmHg 68%
    15:00 +9°C° 0.2 mm 1 mps 749 mmHg 71%
    16:00 +9°C° 0.2 mm 1 mps 749 mmHg 73%
    17:00 +9°C° 0.2 mm 1 mps 749 mmHg 76%
    18:00 +8°C° 0.1 mm 2 mps 749 mmHg 77%
    19:00 +8°C° 0.1 mm 2 mps 749 mmHg 78%
    20:00 +8°C° 0.1 mm 3 mps 749 mmHg 79%
    21:00 +8°C° 0 mm 3 mps 749 mmHg 79%
    22:00 +7°C° 0 mm 4 mps 749 mmHg 79%
    23:00 +7°C° 0 mm 4 mps 749 mmHg 79%
    Show more